Location: Forst
(46.9333°N, 15.4333°E)
Time: 20:33:37
(UTC+00:00)

Cosmos 1934 Rocket - Pass Details

Date: 01 December 2020
Orbit: 937 x 1000 km, 83.0° (Epoch: 27 January)

Event Time Altitude Azimuth Distance (km) Brightness Sun altitude
Rises 17:13:23 0° 354° (N) 3,735 7.0 -20.1°
Reaches altitude 10° 17:16:02 10° 360° (N) 2,779 6.3 -20.6°
Maximum altitude 17:22:15 51° 76° (ENE) 1,231 4.1 -21.6°
Drops below altitude 10° 17:28:20 10° 151° (SSE) 2,732 6.1 -22.7°
Sets 17:30:55 0° 157° (SSE) 3,667 6.9 -23.1°
